Alice, TX

2:47 AM CST on January 24, 2018 (GMT -0600)
Alice International

Weather History for KALI - February, 2014

Change the Weather History Date:

Friday, February 21, 2014

  Actual Average Record
Temperature  
Mean Temperature 60 °F -  
Max Temperature 73 °F 70 °F 88 °F (2017)
Min Temperature 48 °F 49 °F 39 °F (2002)
Degree Days  
Heating Degree Days 4    
Growing Degree Days 10 (Base 50)    
Moisture  
Dew Point 33 °F    
Average Humidity 39    
Maximum Humidity 77    
Minimum Humidity 15    
Precipitation  
Precipitation 0.00 in - - ()
Sea Level Pressure  
Sea Level Pressure 30.10 in    
Wind  
Wind Speed 11 mph (ENE)    
Max Wind Speed 21 mph    
Max Gust Speed 28 mph    
Visibility 10 miles    
Events      
Averages and records for this station are not official NWS values.
T = Trace of Precipitation, MM = Missing Value Source: NWS Daily Summary

Daily Weather History Graph

Daily Weather History Graph

Search for Another Location

Airport or City:

Trip Planner

Search our weather history database for the weather conditions in past years. The results will help you decide how hot, cold, wet, or windy it might be!

Date:

Astronomy

Feb. 21, 2014 Rise Set
Actual Time 7:04 AM CST 6:27 PM CST
Civil Twilight 6:40 AM CST 6:51 PM CST
Nautical Twilight 6:13 AM CST 7:18 PM CST
Astronomical Twilight 5:46 AM CST 7:45 PM CST
Moon No Moon Rise 11:04 AM CST (2/21)
Length of Visible Light 12h 10m
Length of Day
11h 23m
Waning Gibbous, 60% of the Moon is Illuminated
Feb 21
Waning Gibbous
Feb 22
Last Quarter
Mar 1
New
Mar 8
First Quarter
Mar 16
Full

Hourly Weather History & Observations

Time (CST) Temp. Dew Point Humidity Pressure Visibility Wind Dir Wind Speed Gust Speed Precip Events Conditions
12:53 AM 64.0 °F 32.0 °F 30% 30.04 in 10.0 mi NNE 13.8 mph - N/A   Clear
1:53 AM 61.0 °F 32.0 °F 34% 30.06 in 10.0 mi NNE 15.0 mph - N/A   Clear
2:53 AM 57.9 °F 30.9 °F 36% 30.08 in 10.0 mi NNE 15.0 mph - N/A   Clear
3:53 AM 55.0 °F 30.9 °F 40% 30.09 in 10.0 mi NNE 9.2 mph - N/A   Clear
4:53 AM 52.0 °F 30.9 °F 45% 30.12 in 10.0 mi NE 6.9 mph - N/A   Clear
5:53 AM 50.0 °F 30.9 °F 48% 30.14 in 10.0 mi NE 4.6 mph - N/A   Clear
6:53 AM 48.0 °F 30.9 °F 52% 30.16 in 10.0 mi North 4.6 mph - N/A   Clear
7:53 AM 51.1 °F 33.1 °F 50% 30.17 in 10.0 mi NNE 5.8 mph - N/A   Clear
8:53 AM 59.0 °F 35.1 °F 41% 30.19 in 10.0 mi ENE 9.2 mph - N/A   Clear
9:53 AM 64.0 °F 34.0 °F 33% 30.20 in 10.0 mi East 10.4 mph - N/A   Clear
10:53 AM 69.1 °F 21.9 °F 17% 30.19 in 10.0 mi East 20.7 mph 27.6 mph N/A   Clear
11:53 AM 71.1 °F 25.0 °F 18% 30.17 in 10.0 mi East 18.4 mph 25.3 mph N/A   Clear
12:53 PM 73.0 °F 21.9 °F 15% 30.13 in 10.0 mi East 16.1 mph 23.0 mph N/A   Clear
1:53 PM 73.0 °F 25.0 °F 17% 30.10 in 10.0 mi East 13.8 mph - N/A   Clear
2:53 PM 73.0 °F 30.0 °F 20% 30.06 in 10.0 mi East 16.1 mph 23.0 mph N/A   Clear
3:53 PM 73.0 °F 32.0 °F 22% 30.04 in 10.0 mi ESE 15.0 mph 23.0 mph N/A   Clear
4:53 PM 70.0 °F 36.0 °F 29% 30.04 in 10.0 mi East 11.5 mph - N/A   Clear
5:53 PM 66.9 °F 37.9 °F 34% 30.04 in 10.0 mi ESE 15.0 mph - N/A   Clear
6:53 PM 63.0 °F 39.0 °F 41% 30.05 in 10.0 mi ESE 10.4 mph - N/A   Clear
7:53 PM 59.0 °F 39.9 °F 49% 30.06 in 10.0 mi ESE 8.1 mph - N/A   Clear
8:53 PM 55.0 °F 41.0 °F 59% 30.07 in 10.0 mi ESE 5.8 mph - N/A   Clear
9:53 PM 51.1 °F 41.0 °F 68% 30.06 in 10.0 mi ESE 4.6 mph - N/A   Clear
10:53 PM 50.0 °F 41.0 °F 71% 30.06 in 10.0 mi ESE 3.5 mph - N/A   Clear
11:53 PM 48.0 °F 41.0 °F 77% 30.04 in 10.0 mi East 3.5 mph - N/A   Clear